Theta_e
301 301 301 301 300 300 299 299 300 300 300 300 299 299 299 298 297 296 295 296 295 295 294 295 295 295 294 294 294 295 295 296 296 295 295 295 296 295 295 295 296 298 299 300 301 301 301 301 302 302 302 301 302 302 302 302 301 301 301 300 300 299 299 298 296 296 300 302 301 301 302 302 300 301 299 299 296 296 295 297 297 296 296 296 296
300 300 299 300 299 299 298 298 299 298 298 297 296 296 295 295 293 293 293 293 294 294 294 293 293 293 293 293 293 292 293 294 293 294 294 293 293 296 296 294 296 297 298 297 297 299 299 300 300 300 300 300 300 300 300 300 300 299 299 299 299 299 300 297 296 296 295 299 298 299 299 300 298 300 299 298 298 295 293 294 295 295 295 295 295
298 298 298 297 297 296 296 295 295 294 294 294 293 293 292 292 292 293 294 293 292 293 292 292 292 292 292 291 292 292 292 292 291 292 291 291 292 292 293 292 293 293 293 294 294 294 296 297 297 297 298 297 297 297 297 297 297 296 296 296 296 297 297 297 296 294 294 295 298 297 298 298 298 298 298 298 298 298 297 297 295 294 293 293 293
296 296 295 295 294 294 294 293 292 292 292 292 291 290 291 292 292 292 291 291 292 291 291 291 290 290 290 290 290 290 290 290 290 290 292 290 290 292 291 291 292 292 293 293 293 292 293 294 295 294 294 294 295 294 294 294 294 294 294 295 295 295 296 295 295 295 295 294 296 296 297 297 297 298 298 298 298 297 296 296 296 294 294 292 292
294 293 293 292 292 292 291 291 291 290 291 290 290 290 290 290 290 290 290 290 289 289 289 289 289 290 292 290 290 289 290 290 291 290 290 289 290 291 291 291 291 292 292 292 291 292 292 292 293 292 292 292 292 291 291 291 292 292 293 294 294 295 295 295 294 295 294 293 294 296 297 296 297 298 298 296 297 297 295 292 293 293 293 292 290
293 292 291 291 290 290 290 289 289 289 290 290 289 289 289 289 287 287 288 289 288 288 288 288 288 289 288 289 289 289 289 288 289 289 289 289 290 290 291 290 290 291 291 291 291 291 291 292 291 291 291 291 291 291 290 290 290 290 291 292 292 293 293 293 294 293 293 293 293 293 295 294 294 296 296 296 295 294 295 295 291 289 289 288 289
292 292 291 290 290 289 289 289 289 289 289 289 289 289 288 287 287 288 287 288 287 287 287 287 288 288 288 288 288 289 289 289 289 289 289 288 288 288 289 289 289 290 290 290 290 290 291 291 291 291 291 291 291 291 291 290 290 290 290 290 291 291 292 292 293 292 292 292 292 293 293 294 294 292 295 295 294 294 293 292 292 293 288 288 288
291 291 290 290 290 290 290 289 289 289 289 288 287 287 287 286 286 286 286 286 286 286 287 287 286 286 287 287 288 288 287 287 287 287 287 287 288 287 287 288 288 288 288 289 289 289 290 290 291 291 291 292 292 292 291 291 290 290 290 290 290 290 291 291 291 291 291 291 291 291 292 292 293 294 294 293 292 291 290 289 289 291 291 288 287
290 290 289 289 289 289 289 288 288 288 287 286 286 286 286 284 285 284 284 285 287 285 285 286 286 286 286 287 287 288 289 290 289 289 289 288 287 287 287 287 287 287 287 287 288 288 289 290 290 291 291 290 290 291 292 292 292 291 291 290 289 289 290 290 290 291 290 291 290 292 291 291 291 291 291 291 290 290 292 292 289 290 290 290 290
289 289 289 288 288 288 288 287 287 286 285 285 285 284 284 284 284 283 284 284 284 285 284 285 285 286 287 287 287 288 289 290 289 291 292 290 288 287 287 286 286 286 286 287 287 287 288 289 290 289 289 289 289 290 291 291 291 292 291 291 290 289 288 288 289 289 289 288 289 289 288 289 290 290 290 291 291 292 291 291 290 290 290 289 289
287 287 287 287 287 286 286 286 285 286 285 284 283 284 284 284 284 284 284 284 285 285 285 285 285 285 285 285 285 287 288 289 290 292 293 293 290 286 285 285 285 285 285 286 286 286 287 287 288 288 288 288 289 290 291 291 291 291 291 291 291 290 289 288 288 288 288 288 289 288 288 288 289 290 289 290 291 291 291 291 290 290 289 288 287
287 286 286 286 285 285 285 285 285 285 284 284 283 283 283 283 284 284 284 284 285 284 284 284 284 284 285 283 283 285 285 288 291 291 292 292 291 288 286 285 285 285 285 285 285 286 286 286 287 288 288 288 288 289 289 290 291 291 291 291 291 292 292 290 288 288 288 288 287 288 288 288 289 289 289 289 289 290 290 290 290 289 288 288 288
286 286 285 285 285 285 284 284 284 284 283 283 283 283 283 283 283 283 283 283 283 283 283 283 283 283 283 282 282 283 283 287 290 291 291 291 291 289 286 285 284 284 284 285 285 285 285 286 286 287 288 287 287 288 288 288 289 290 290 290 290 291 292 293 293 290 290 288 288 288 289 289 288 289 290 290 290 289 289 289 289 289 288 288 288
286 285 285 285 285 285 284 283 283 282 282 282 283 283 283 283 282 282 282 282 282 282 281 281 282 282 282 282 282 282 283 286 289 290 290 290 291 290 286 285 284 284 284 284 285 285 285 285 285 285 286 287 287 287 287 287 288 288 288 288 288 289 290 291 291 290 290 290 289 288 290 291 289 290 291 291 289 288 288 288 289 288 288 288 289
285 285 285 284 284 284 283 282 282 281 282 281 281 281 281 280 280 281 282 281 281 281 281 280 281 281 281 281 281 282 284 287 289 289 290 290 290 290 285 284 284 284 284 284 284 284 284 285 285 285 285 286 286 287 287 287 287 287 287 287 287 287 288 288 288 288 289 290 290 291 291 292 292 292 292 292 291 290 290 289 289 289 289 290 289
284 284 284 283 283 282 281 280 280 280 280 280 280 280 279 279 279 280 280 280 280 280 280 279 280 280 280 280 281 281 282 286 288 288 289 290 290 286 283 283 283 283 283 283 284 284 284 284 284 285 285 285 287 289 288 288 286 286 286 286 286 287 287 288 290 290 290 290 290 291 291 291 292 291 291 291 291 290 290 290 290 289 288 287 286
283 283 282 282 281 281 280 279 279 279 278 278 277 277 277 278 278 279 278 279 278 279 278 278 279 280 280 280 279 280 280 283 287 288 288 289 288 284 283 283 282 282 283 283 283 283 284 284 284 284 284 284 286 289 289 289 286 285 285 285 286 286 286 287 289 290 291 291 291 292 292 293 293 293 293 294 292 292 290 288 287 288 287 285 285
282 282 281 281 280 280 279 278 277 277 276 276 276 276 276 276 277 278 277 277 277 278 278 279 278 278 279 279 279 279 280 282 286 287 288 288 287 283 282 282 282 282 282 282 283 283 283 284 284 284 284 284 287 289 289 288 285 285 285 285 285 285 285 287 287 288 289 290 290 290 290 291 291 292 292 293 293 291 289 285 288 288 286 286 285
281 280 280 280 279 279 278 277 276 275 275 275 275 275 274 275 276 276 275 274 276 277 279 278 277 277 276 278 280 280 280 281 285 286 287 288 286 283 282 281 281 281 281 281 282 282 283 283 284 285 285 286 288 288 288 286 285 284 284 284 283 283 285 286 286 285 286 286 286 287 287 287 288 288 288 290 291 290 290 288 289 287 286 286 286
280 280 280 279 278 277 276 276 275 275 274 274 274 274 275 275 273 273 273 274 274 275 275 276 276 277 277 278 279 279 279 280 282 286 286 286 286 284 282 280 280 280 280 281 281 282 283 283 284 286 287 286 286 286 286 286 285 284 284 283 282 282 285 285 285 285 285 285 285 285 286 286 287 287 287 287 288 288 288 289 288 287 286 286 286
279 279 279 279 278 277 277 276 275 275 275 275 275 275 274 273 273 272 272 273 273 274 274 276 276 277 277 276 278 278 278 279 281 285 285 285 285 284 281 280 280 280 281 281 282 282 282 283 283 284 284 285 285 286 286 287 286 285 284 283 283 285 286 285 285 285 285 285 285 285 285 285 286 286 286 287 287 288 288 288 288 288 287 286 285
279 280 280 279 279 278 278 277 277 277 278 277 275 273 273 273 272 271 272 272 273 274 274 275 276 276 277 277 276 278 279 280 279 282 284 284 284 284 281 280 282 282 281 281 281 281 281 281 281 282 284 285 285 286 286 286 286 284 284 285 286 286 284 284 284 284 284 284 283 283 284 284 285 285 286 286 287 287 288 288 287 288 288 288 287
280 280 279 278 277 277 277 276 277 277 276 275 274 272 273 272 270 271 272 272 273 272 273 274 275 275 276 276 276 277 277 278 281 280 282 282 283 283 284 283 284 282 281 279 280 280 281 281 281 283 284 285 285 285 285 286 284 283 285 286 285 286 285 284 284 283 283 283 283 283 283 284 284 284 285 285 287 287 287 287 287 288 287 288 288
279 278 277 276 275 275 275 275 276 275 274 273 272 271 270 270 270 272 272 271 271 272 273 273 273 273 273 274 275 276 276 277 279 280 280 281 282 283 283 283 283 281 281 280 280 280 280 281 282 283 284 284 284 285 285 284 283 285 285 285 285 285 284 283 283 283 283 283 282 283 283 284 284 284 285 286 287 287 287 287 287 287 287 287 287
277 275 274 274 273 273 273 274 274 274 272 270 270 270 269 269 269 269 270 270 270 270 271 272 272 272 272 273 274 275 275 275 275 277 279 279 281 282 282 282 282 283 280 280 281 281 282 283 283 283 283 284 284 284 284 283 284 284 285 285 284 283 283 283 283 283 282 281 282 282 283 284 285 285 286 286 286 286 286 286 286 286 285 283 280
274 273 273 273 274 274 272 272 271 271 270 270 269 268 267 268 268 268 268 267 267 268 269 270 270 271 271 272 272 273 274 274 274 275 276 277 278 280 281 281 281 281 281 280 281 282 283 283 283 283 283 283 282 281 281 282 284 284 284 284 283 283 284 283 283 283 282 283 283 282 283 284 285 285 286 286 285 285 285 285 284 281 279 279 279
273 272 272 273 273 272 271 269 268 268 267 267 266 267 267 266 266 268 268 266 266 267 268 269 269 270 270 270 271 272 272 273 273 274 274 276 277 279 279 279 280 281 280 280 280 280 281 281 282 283 283 283 283 283 283 283 283 283 283 283 284 284 284 284 283 282 283 283 283 284 284 285 285 285 285 285 284 285 286 284 283 282 279 278 278
271 271 271 270 269 269 269 270 268 266 266 266 265 265 265 266 265 266 266 266 266 266 266 267 268 269 269 270 271 272 272 272 273 273 275 277 278 278 279 279 279 279 279 279 280 281 281 281 282 281 281 281 281 282 282 282 282 283 283 283 283 284 284 284 284 284 284 284 284 284 284 285 284 284 284 284 285 285 285 283 282 280 278 277 274
269 268 268 269 269 269 267 265 265 264 264 263 263 265 265 264 265 265 265 266 266 266 265 268 269 269 271 272 272 271 272 272 273 278 278 279 278 277 277 278 278 279 280 282 280 280 280 280 279 280 280 280 280 280 280 281 281 282 282 282 282 282 283 283 282 282 283 283 283 283 283 284 283 284 284 284 284 284 283 281 281 279 277 276 276
268 268 269 268 266 265 263 263 263 263 262 263 263 263 271 272 271 268 266 273 275 276 276 271 272 273 273 273 274 273 272 274 278 279 279 279 280 280 280 281 281 280 281 282 281 279 278 278 278 279 279 279 278 278 279 279 279 279 280 281 281 281 282 282 282 282 283 283 283 283 283 283 283 283 283 283 283 282 280 280 278 278 275 275 273
268 267 267 265 265 263 263 263 263 263 262 263 263 264 263 264 271 273 274 274 275 275 275 276 276 276 275 273 274 277 277 278 278 278 279 279 280 280 280 281 281 281 281 280 278 278 277 277 276 277 277 277 277 278 278 278 277 278 278 280 280 281 281 281 282 282 282 282 283 283 283 282 282 282 282 282 281 280 278 278 277 276 276 275 272
266 266 265 263 263 264 263 263 263 263 262 263 262 262 262 262 262 269 272 272 273 273 274 275 275 275 275 275 273 272 275 277 277 278 278 279 279 279 280 280 280 281 281 281 277 276 276 275 275 275 276 276 276 277 277 277 277 277 277 278 279 280 280 280 281 282 282 282 282 282 282 282 282 282 282 282 280 278 277 276 275 275 275 273 272
264 263 263 263 263 264 263 262 263 262 261 261 260 260 261 261 261 261 264 269 271 271 272 273 273 274 274 275 275 275 275 276 278 278 278 278 278 278 279 279 280 280 280 276 274 274 274 274 274 274 274 274 274 274 275 276 276 277 278 278 278 278 280 281 282 281 281 281 281 281 282 282 282 281 281 281 278 276 276 276 275 275 273 271 270
261 261 261 261 261 261 262 262 261 261 261 261 261 260 259 260 259 261 262 262 263 267 270 271 272 273 273 274 274 275 276 276 276 277 277 277 277 277 278 276 278 279 277 273 273 272 273 272 272 272 272 273 272 273 273 274 275 277 277 277 277 278 279 281 280 280 281 281 281 281 281 282 281 281 280 279 277 276 275 275 274 273 271 271 269
259 262 262 261 259 260 261 261 261 260 261 260 260 260 259 261 261 261 261 261 262 262 263 264 268 271 271 272 273 275 275 275 275 275 276 276 276 277 276 273 272 272 272 272 272 271 271 270 270 270 270 270 270 271 271 273 274 274 274 275 276 277 278 279 279 280 280 280 280 280 281 281 281 281 280 278 276 275 274 274 274 273 271 269 268
260 260 260 261 260 261 260 259 261 260 259 259 259 260 261 261 261 261 261 262 262 262 263 264 265 269 271 271 272 273 273 274 274 274 274 274 275 275 270 269 269 269 269 270 270 270 270 269 268 268 268 268 269 269 271 272 272 272 272 273 274 275 277 278 279 279 279 279 280 280 280 280 280 280 279 277 276 275 274 274 273 272 270 269 268
259 258 260 260 259 259 259 259 259 259 263 262 261 260 261 260 261 260 260 261 261 262 263 264 265 265 268 268 269 270 272 272 272 272 272 272 273 270 268 268 267 267 267 267 268 267 267 267 267 267 267 267 267 268 269 270 270 270 271 272 273 274 276 277 277 277 277 278 278 279 279 279 279 279 277 276 274 274 273 273 272 271 270 269 268
257 258 257 257 257 258 257 257 258 263 261 261 259 260 260 259 260 261 261 260 262 263 262 263 265 264 263 264 267 267 268 269 270 269 269 269 268 267 267 266 266 266 266 266 266 266 265 265 266 266 266 266 266 267 268 268 268 268 269 269 271 273 275 276 276 276 277 277 277 278 278 278 278 277 276 274 273 273 272 272 270 269 269 268 268
256 260 262 262 262 257 258 259 259 259 258 260 259 261 261 260 260 260 260 260 260 261 262 262 262 262 263 264 264 266 267 265 264 263 264 265 266 265 265 265 265 265 265 265 265 264 264 264 265 265 265 265 266 266 266 266 266 266 267 268 269 270 273 274 274 275 275 275 275 276 276 276 276 276 275 274 273 273 272 271 270 269 268 267 267
258 259 261 263 260 261 260 260 259 258 259 258 257 259 260 260 259 259 259 259 259 260 260 261 261 261 263 264 264 265 264 264 263 263 263 263 263 264 264 263 263 263 263 263 263 263 263 263 264 263 264 264 265 265 265 265 265 265 265 266 267 268 270 272 273 273 273 273 274 274 275 275 275 275 274 274 273 273 271 270 269 269 268 266 264
259 259 261 262 261 259 260 259 258 258 258 259 259 258 258 260 260 261 259 258 259 259 260 260 260 261 263 265 266 267 264 262 261 262 262 262 262 262 262 263 263 263 263 263 263 263 263 263 263 263 263 264 264 265 265 264 264 264 264 265 266 267 269 270 271 272 272 272 272 272 273 273 274 273 272 272 272 270 270 269 269 268 266 264 264
258 257 258 258 260 258 257 259 258 262 259 260 258 258 260 260 259 259 259 259 260 260 259 259 259 260 263 265 265 266 263 261 261 261 261 262 262 262 262 262 263 262 262 262 262 262 262 262 262 262 262 263 263 264 264 264 264 264 264 264 264 265 266 268 270 271 271 271 271 271 271 272 272 272 271 271 270 269 269 268 268 266 265 264 264
257 257 257 258 257 257 257 257 257 256 257 257 258 262 261 259 258 259 259 259 259 259 258 258 258 260 261 264 264 264 261 259 261 260 260 261 261 262 261 261 262 262 262 262 262 262 262 262 262 262 262 262 263 264 264 264 264 264 263 263 264 264 265 266 267 269 271 271 270 270 270 270 270 270 270 270 269 269 268 268 266 265 265 264 264
257 257 258 258 257 258 258 257 257 258 257 260 260 259 259 258 258 257 257 256 257 257 257 258 258 259 259 260 261 260 258 258 258 259 260 261 260 260 260 260 261 260 260 261 261 261 261 261 261 261 262 263 264 264 265 265 265 264 263 263 263 264 264 265 266 268 269 270 270 270 270 270 269 269 269 269 269 268 267 266 265 265 264 264 263
255 256 256 256 256 256 256 257 257 257 259 259 257 257 259 257 257 257 257 256 258 258 257 258 258 258 258 258 258 258 258 257 259 259 259 259 259 259 259 259 259 259 259 260 260 260 260 261 261 261 261 262 263 264 265 265 265 265 264 264 263 263 263 264 266 268 269 269 269 269 269 269 268 268 268 268 268 267 266 265 265 264 264 263 263
256 256 256 256 256 257 257 255 258 256 256 255 255 255 255 255 255 256 257 257 257 257 256 257 257 257 258 257 258 258 258 257 258 258 259 259 258 258 259 259 259 259 259 259 259 260 260 260 260 260 261 261 262 263 264 265 265 265 265 264 264 264 264 265 266 268 268 268 268 268 268 268 267 267 266 267 267 266 266 265 265 264 264 263 263
255 255 256 256 256 257 257 257 255 254 254 255 256 255 255 255 255 257 258 258 257 258 256 256 256 256 257 257 257 257 258 258 258 258 258 258 258 258 258 258 258 258 258 259 259 259 259 260 260 260 260 261 262 263 263 264 264 264 265 265 265 264 264 265 266 267 267 268 268 268 267 267 267 266 266 266 266 266 265 265 264 263 263 263 263
254 255 255 256 255 255 255 254 255 259 255 255 255 255 256 256 255 256 255 255 256 256 255 255 255 256 257 257 257 257 257 257 258 258 258 257 257 257 257 257 258 258 258 258 258 259 259 259 259 259 260 260 261 262 262 263 263 264 264 264 264 264 264 264 265 266 266 267 267 267 267 266 266 266 266 266 265 265 264 264 264 263 263 263 263
254 254 255 255 255 255 255 254 256 254 253 253 255 255 255 255 255 254 254 255 254 255 254 255 255 256 256 257 257 257 257 258 257 257 257 257 257 257 257 257 258 257 258 258 258 258 258 259 259 259 259 260 261 261 262 263 263 263 263 263 264 264 264 264 265 264 264 266 266 267 266 266 265 265 265 265 265 264 264 263 263 263 263 263 262
254 255 255 255 255 254 254 254 253 252 253 253 252 253 254 254 253 254 253 254 253 254 253 254 255 255 255 256 257 257 257 257 257 257 257 257 257 257 257 257 257 257 257 257 258 258 258 259 259 259 259 260 261 261 262 263 263 263 263 263 264 264 264 264 264 264 264 264 265 265 265 265 264 264 264 263 263 263 263 263 262 262 262 262 261
255 255 254 254 254 254 253 253 252 252 251 252 251 251 253 253 253 252 253 252 253 254 254 254 254 255 255 255 256 256 256 256 256 256 256 256 256 256 256 256 256 256 257 257 257 258 258 258 259 259 259 260 260 261 262 263 263 264 264 264 264 263 263 263 263 263 263 263 264 264 263 263 262 262 261 261 262 262 262 262 261 261 261 261 260
Wind_Speed
6 5 6 6 6 6 6 5 6 5 6 6 6 5 6 5 4 3 3 4 4 4 4 4 4 4 4 4 4 3 4 4 4 4 4 4 4 4 4 4 5 6 6 7 5 5 6 7 9 8 6 7 7 7 7 8 6 6 5 6 7 5 6 8 13 19 20 9 8 11 9 10 13 9 10 11 8 8 10 11 11 11 11 11 12
6 6 6 7 6 6 5 5 5 6 7 6 6 5 4 4 3 4 4 4 4 4 4 4 4 4 4 3 3 4 4 4 4 4 4 5 4 3 4 4 4 5 5 6 5 5 5 7 9 8 6 8 9 9 8 9 8 8 8 8 10 10 9 11 14 15 22 19 10 7 10 8 14 10 9 13 12 7 10 11 10 11 11 11 11
5 6 6 7 6 5 6 6 6 6 7 6 6 5 4 4 3 5 5 5 4 4 3 3 3 3 3 3 3 3 3 3 3 3 4 4 5 5 4 4 4 5 5 6 6 5 6 7 9 8 7 7 8 9 8 9 8 9 10 8 10 11 9 10 11 15 19 21 16 11 11 10 12 14 10 9 11 11 12 11 10 9 10 11 11
6 6 7 7 6 7 7 6 7 6 7 5 6 5 4 5 5 7 5 5 5 4 3 3 3 4 4 4 4 3 3 3 3 3 4 4 4 5 5 5 5 5 6 7 6 5 6 7 8 7 6 8 9 9 8 8 8 8 9 9 10 12 10 9 11 13 15 18 20 14 9 11 13 11 9 9 12 12 11 11 10 10 10 9 11
6 6 7 8 7 7 6 5 6 6 6 5 6 6 6 6 6 6 5 5 4 3 3 3 3 4 5 4 4 4 4 4 4 4 4 4 4 5 5 5 5 6 6 7 7 7 7 8 9 7 7 9 10 8 8 8 8 8 9 9 10 11 10 9 11 11 14 17 19 17 13 11 13 14 11 11 12 12 10 11 12 12 12 10 8
7 7 7 8 7 7 6 5 5 5 5 6 7 7 7 6 5 4 3 3 3 3 3 4 4 4 4 4 4 4 4 4 4 4 4 4 4 4 5 5 6 6 6 7 7 7 8 9 9 8 8 9 11 9 8 10 8 9 10 10 10 10 11 11 10 11 13 15 16 19 17 15 13 13 10 8 12 14 13 11 9 11 10 9 10
7 7 7 7 7 6 6 5 5 5 6 6 6 6 5 4 4 3 3 2 2 3 4 4 4 4 4 4 4 4 4 4 4 4 4 4 4 5 6 6 6 6 6 7 7 7 8 8 9 8 9 10 10 11 10 10 9 11 10 10 11 10 11 11 10 11 12 14 15 15 17 16 14 16 11 8 11 12 13 13 15 11 7 10 12
7 7 7 7 7 6 6 5 5 6 5 5 5 5 4 4 4 4 3 4 4 4 4 4 4 4 4 4 4 4 4 4 4 4 4 4 5 5 5 7 8 7 8 8 8 8 9 9 9 9 10 10 10 11 10 11 10 11 10 9 10 11 12 12 11 11 11 12 14 15 13 16 16 14 11 9 11 11 8 10 14 15 12 7 10
7 7 6 7 6 5 5 5 5 5 5 4 4 4 4 4 3 3 3 4 4 4 4 4 4 5 4 4 5 5 5 5 4 5 6 7 5 6 6 7 8 9 9 9 9 9 9 9 9 9 11 14 17 16 16 15 12 13 14 9 10 11 12 11 11 11 11 12 14 13 14 15 15 15 14 12 13 13 11 9 12 13 12 11 11
7 7 7 6 6 5 6 5 5 4 4 4 4 4 4 4 4 4 4 4 4 4 4 4 4 5 6 6 5 5 6 4 7 12 10 7 7 6 6 7 7 8 9 11 11 9 9 9 11 15 16 17 18 19 20 20 20 17 15 14 13 11 12 13 12 11 11 12 13 14 15 16 16 15 15 15 12 10 13 12 14 12 11 12 12
7 7 7 5 5 5 5 4 4 5 4 4 4 4 4 3 4 4 4 4 5 4 4 5 5 5 5 5 5 6 5 5 11 11 12 13 8 6 6 7 6 7 8 9 11 12 10 9 9 12 13 13 14 18 19 20 21 22 24 23 20 16 14 15 15 13 12 12 13 14 15 18 18 16 15 15 12 13 12 12 12 12 12 13 15
8 7 6 5 5 5 4 4 5 5 5 4 3 3 3 4 5 5 4 5 5 4 5 4 4 4 4 4 4 5 5 8 12 12 13 13 12 8 7 7 8 7 8 9 10 11 12 12 11 9 9 11 12 13 16 19 21 21 22 23 23 23 22 18 16 15 14 14 15 16 16 17 18 15 15 12 13 11 10 11 11 12 13 13 12
7 7 5 6 6 5 5 5 5 4 4 4 3 4 4 5 6 5 5 4 4 4 4 4 4 4 3 4 4 5 5 9 12 13 13 14 14 12 7 7 8 9 9 10 11 11 11 12 13 12 10 14 13 12 13 15 18 21 22 22 22 23 23 25 24 19 15 16 17 19 17 17 17 17 15 14 11 15 13 13 11 11 11 13 13
7 7 6 6 6 6 6 5 4 4 3 3 4 4 5 5 4 4 4 4 4 4 4 4 4 4 4 4 4 5 6 8 12 13 14 15 15 13 7 8 8 9 10 11 11 11 12 12 13 15 14 12 10 11 12 14 15 15 14 13 13 15 19 21 21 22 21 18 18 20 19 16 18 18 17 15 16 17 16 15 13 14 13 14 13
7 6 7 6 6 6 6 5 4 3 3 4 4 4 4 4 4 4 4 4 4 4 4 4 4 4 4 4 4 5 6 10 12 14 14 15 17 13 7 7 8 9 10 10 11 11 12 12 13 15 16 15 12 12 12 14 15 16 16 16 15 14 15 14 12 10 12 13 16 18 19 18 18 18 17 15 17 16 15 17 16 16 16 15 14
7 6 7 7 7 6 6 4 3 3 3 3 4 4 4 3 3 3 3 3 3 4 4 3 4 4 4 4 5 6 6 10 13 13 14 14 16 9 6 7 9 10 11 10 10 10 10 11 12 14 15 15 17 20 17 15 14 17 20 19 17 16 14 13 16 15 16 15 15 16 16 18 20 19 18 16 15 16 15 14 13 14 15 14 15
7 7 7 6 6 5 4 3 2 2 2 2 3 3 3 3 3 2 3 3 4 4 4 3 4 5 5 5 5 7 6 8 12 14 14 15 11 8 8 8 8 10 12 12 11 10 10 10 11 13 14 14 19 22 22 21 15 16 17 18 17 17 16 13 14 18 21 23 25 27 28 29 30 31 31 33 25 20 17 17 18 14 14 14 14
7 7 6 5 4 4 3 1 0 1 1 1 2 2 2 2 1 2 3 4 4 4 4 4 4 4 5 5 5 6 8 7 9 13 15 16 12 8 8 9 11 11 12 12 11 11 11 17 14 12 13 14 20 25 27 21 15 15 16 18 20 20 19 15 13 13 17 20 21 23 24 25 28 30 31 31 31 25 17 17 16 15 15 13 14
6 5 5 4 3 3 3 1 0 0 1 1 1 2 3 2 2 3 3 3 4 4 4 5 4 4 4 5 7 6 7 8 8 10 15 16 13 8 9 9 11 12 12 14 13 12 12 11 16 15 15 18 29 29 33 25 18 17 17 18 19 20 17 17 17 18 17 17 17 16 16 18 17 16 17 25 27 24 19 19 17 16 16 15 13
5 4 4 4 3 2 2 1 1 0 1 1 2 2 2 2 3 3 4 3 3 4 3 4 5 5 4 5 7 5 7 8 7 11 14 17 18 12 8 9 11 13 13 13 14 14 13 13 13 17 25 29 30 31 30 30 22 17 16 16 17 20 14 17 19 19 20 18 20 18 18 16 14 15 15 17 18 18 18 17 16 15 16 15 13
4 4 4 5 4 2 2 1 1 1 1 1 1 1 1 2 3 3 3 3 3 4 5 5 6 7 5 5 5 6 4 8 9 13 15 16 18 16 8 9 9 10 12 14 12 13 13 13 13 23 30 31 30 30 29 30 28 20 16 15 16 21 26 20 22 24 20 19 17 16 16 15 14 13 13 14 14 14 14 15 16 15 15 15 14
3 4 5 4 3 1 1 1 2 2 2 0 1 1 1 1 2 3 3 3 5 7 7 7 7 8 7 6 5 7 8 9 9 12 17 19 18 19 11 9 11 11 12 12 13 12 14 14 13 22 32 31 31 32 33 31 33 22 19 28 35 37 24 19 17 15 15 17 17 16 14 14 13 13 13 13 13 12 13 13 12 14 15 15 15
4 4 4 3 3 1 2 2 3 1 0 1 0 1 1 1 2 1 4 6 7 7 7 7 8 10 10 8 6 6 8 8 11 11 18 19 19 18 19 13 18 12 11 12 12 14 12 15 16 24 32 33 33 34 34 36 29 20 34 34 34 38 30 16 14 14 15 14 14 14 15 14 12 11 12 11 12 12 11 12 14 14 14 14 14
4 4 4 3 2 3 2 2 2 0 1 1 1 0 1 2 4 6 6 6 7 7 7 7 7 8 10 11 10 7 5 6 11 15 13 18 18 19 19 20 20 14 13 12 12 13 14 14 18 32 33 33 34 34 34 33 25 34 33 34 33 30 19 17 15 15 16 16 16 15 15 14 12 11 11 12 12 13 13 13 13 13 13 12 13
4 4 3 3 4 3 2 2 1 1 1 0 1 2 4 5 7 5 5 6 5 5 6 5 6 8 9 10 10 9 7 7 7 10 15 16 19 19 20 22 22 22 15 11 13 14 21 31 32 31 32 34 37 34 27 25 28 28 31 31 29 17 16 15 15 15 16 16 15 16 14 12 13 13 13 13 13 12 11 11 10 9 8 6 3
5 5 4 4 4 3 1 1 2 2 2 3 4 4 4 5 5 5 6 4 4 5 6 6 6 7 8 9 10 11 10 7 8 8 9 10 11 18 23 22 22 22 21 17 25 29 29 29 32 31 26 23 20 18 17 19 26 30 30 27 16 14 13 13 14 17 16 15 15 15 15 14 13 12 12 12 11 11 10 10 9 7 6 6 5
5 5 5 4 3 2 1 2 2 3 4 4 4 4 4 3 3 3 5 4 4 5 5 5 6 7 8 9 10 11 10 8 8 8 8 9 10 11 12 12 17 18 13 12 14 15 18 17 17 26 24 29 28 23 22 21 18 16 15 14 13 13 14 13 14 15 18 18 17 14 14 13 11 11 12 11 11 11 9 10 9 9 6 5 6
5 5 4 3 1 3 3 5 5 4 4 5 5 5 5 3 2 3 3 4 5 5 4 5 6 7 8 9 10 11 11 9 8 9 11 12 11 10 9 8 8 8 10 10 12 15 16 16 19 13 13 13 13 12 11 12 13 13 12 13 13 14 17 20 19 14 13 13 14 15 14 12 12 12 11 11 11 11 9 8 9 8 5 4 3
5 3 3 3 4 4 3 3 4 4 4 4 4 3 3 3 3 3 4 3 3 5 4 6 6 5 6 8 10 12 13 12 9 15 18 21 18 15 12 11 12 11 16 26 20 15 14 13 12 11 9 11 12 10 10 12 11 12 14 13 13 14 14 14 15 15 15 15 15 14 12 11 12 12 12 12 11 10 7 7 7 6 4 5 6
4 4 4 4 4 3 3 3 3 3 3 4 3 2 4 6 5 3 4 5 7 8 8 5 7 7 8 7 6 9 11 14 25 29 26 27 28 27 25 25 24 21 24 31 21 14 11 10 10 10 11 11 12 14 14 12 13 15 13 15 13 13 13 14 14 15 14 15 15 14 13 13 12 11 11 12 11 8 6 8 6 5 6 6 5
5 4 4 3 3 1 1 1 2 1 2 2 3 4 3 3 6 8 7 5 6 7 10 11 13 13 10 10 11 18 20 22 24 26 28 28 29 30 29 28 27 27 27 20 13 10 11 10 12 11 13 11 12 12 12 14 14 13 14 14 12 12 14 13 14 15 15 14 13 13 13 12 12 12 12 12 11 8 5 4 3 4 5 5 5
6 5 4 2 3 2 1 0 0 0 1 2 3 4 5 4 2 4 6 6 7 8 7 8 11 13 16 15 15 12 17 21 24 24 25 27 27 29 29 30 28 27 26 23 10 10 10 10 12 13 12 12 11 11 13 12 12 13 14 13 12 12 14 14 15 14 15 14 13 13 12 12 12 12 12 11 9 6 5 4 4 5 3 3 3
7 5 4 3 2 2 1 0 0 1 1 3 3 3 4 5 7 4 2 5 5 5 5 9 13 15 16 17 20 19 20 22 25 24 25 25 27 27 29 29 27 25 24 12 8 8 8 10 11 11 13 13 12 12 11 13 12 14 11 13 13 14 12 15 16 14 13 14 14 13 13 12 11 11 10 9 7 6 5 5 3 3 4 5 4
5 4 4 4 3 1 0 0 1 1 1 1 1 2 2 3 3 5 7 3 0 1 4 9 13 17 16 18 18 19 21 23 24 25 25 25 25 25 25 20 23 21 16 10 10 10 10 9 10 11 11 13 14 14 13 12 13 11 13 13 14 13 15 13 14 14 13 14 13 12 13 12 10 10 9 8 5 4 3 3 4 5 5 5 6
4 4 6 4 1 1 0 1 0 0 0 0 1 1 1 2 3 3 4 7 9 9 7 5 7 13 15 14 16 18 20 22 23 23 24 24 23 24 22 13 13 12 10 7 7 8 10 11 11 12 11 12 14 14 14 14 13 13 14 15 15 12 12 13 13 13 14 13 13 13 12 12 11 9 9 8 5 4 4 4 4 4 5 5 6
4 3 3 2 0 1 1 1 0 1 1 0 1 1 1 1 3 2 4 4 5 7 7 6 6 8 16 16 17 18 19 20 21 22 20 21 21 21 12 11 11 11 11 9 9 9 10 10 12 12 12 12 12 13 14 12 13 13 13 13 15 14 14 13 13 12 12 13 12 13 12 11 11 10 8 5 5 3 1 2 3 4 5 5 5
4 3 2 2 3 1 1 1 1 1 2 1 1 1 2 2 3 1 4 4 4 4 6 8 9 7 6 6 11 17 20 19 19 18 18 18 19 12 9 10 10 11 11 10 11 11 10 10 10 11 12 12 13 13 13 13 13 13 15 15 14 14 11 10 13 14 13 12 12 12 13 12 11 10 7 4 1 3 3 4 5 5 5 7 8
3 2 2 3 2 2 2 3 3 3 1 1 2 2 1 1 1 1 4 3 4 5 7 7 7 8 10 9 10 8 12 16 16 12 11 12 10 8 9 8 9 9 10 10 10 10 9 10 9 10 11 11 12 13 13 14 13 13 13 14 14 13 19 17 17 15 14 12 10 11 10 10 9 6 4 1 2 3 4 4 6 6 7 7 6
1 3 7 7 6 4 4 2 2 1 1 1 2 2 1 1 1 1 2 2 3 5 5 5 6 7 8 8 8 10 12 9 9 9 9 8 7 7 7 7 7 7 8 8 9 9 9 10 10 10 11 11 12 11 12 12 12 12 12 13 13 13 13 11 12 12 11 11 11 11 10 8 6 5 4 3 3 3 4 5 5 6 7 7 6
4 5 7 10 6 6 5 5 3 2 4 2 1 1 0 1 1 1 2 2 4 4 5 5 6 6 7 8 9 10 10 10 8 8 8 9 8 7 7 7 8 8 9 8 7 8 8 8 9 9 10 10 10 10 10 11 11 12 12 12 12 13 12 12 11 11 11 12 10 11 10 9 7 6 5 5 4 4 6 6 6 6 7 7 8
6 6 6 6 7 4 4 4 4 3 2 1 1 0 1 1 1 2 2 4 3 3 4 5 5 6 6 10 17 16 9 8 8 8 8 9 8 8 8 8 8 9 9 9 9 8 8 8 8 8 9 9 9 10 10 11 11 11 11 12 12 12 12 12 11 11 12 11 10 10 10 9 8 7 6 6 6 7 6 6 7 7 7 7 9
7 6 6 6 7 4 4 4 5 3 2 2 1 1 1 1 0 1 4 3 5 4 5 5 5 5 8 16 15 17 10 6 7 8 8 8 8 8 8 7 7 8 8 9 9 10 10 10 9 8 9 9 10 11 10 11 11 12 12 12 12 12 12 12 11 11 12 10 10 10 9 9 8 7 7 6 5 6 6 6 7 8 8 8 7
6 5 6 5 5 5 4 4 3 3 1 1 1 1 1 0 1 4 4 5 3 4 4 4 5 5 6 9 12 13 7 6 6 7 7 7 7 8 8 8 8 8 8 8 8 9 9 9 10 9 9 11 11 10 10 11 11 11 12 11 12 12 12 12 12 12 10 10 9 9 9 8 7 6 6 6 5 5 6 7 7 7 7 7 7
6 5 6 4 5 2 4 4 3 3 3 2 1 2 2 2 2 3 4 4 4 4 4 4 4 4 5 7 7 7 6 6 6 6 7 7 7 7 7 7 7 7 8 8 8 8 9 9 10 10 10 10 10 11 10 9 10 10 11 12 12 13 12 12 12 12 11 10 9 8 7 7 7 6 6 6 5 6 6 6 7 6 6 6 7
6 5 5 6 4 5 4 2 4 3 3 2 1 1 3 1 2 3 3 4 5 4 3 4 3 4 6 6 6 6 6 6 7 7 7 7 7 7 7 7 7 7 8 8 7 8 8 9 9 10 11 10 10 10 10 10 9 9 9 10 9 11 12 12 12 11 10 10 9 8 7 6 6 6 5 5 5 5 6 6 6 6 7 6 6
6 5 5 4 5 6 5 3 5 3 2 2 2 1 2 2 3 3 5 4 4 3 4 3 3 4 5 6 6 7 7 6 6 6 8 7 7 7 7 7 7 7 7 7 7 8 8 8 8 9 10 10 11 10 10 10 10 10 10 9 9 9 9 10 10 10 10 10 9 7 6 5 6 6 6 5 5 6 6 6 6 6 6 7 7
5 4 4 4 4 5 5 5 2 2 2 1 1 1 2 3 3 4 5 5 4 6 4 4 3 4 5 6 6 6 7 6 7 7 7 8 7 7 7 7 7 7 7 7 7 7 8 8 8 8 9 9 10 11 10 9 9 9 9 10 10 11 11 11 10 10 10 9 8 7 6 5 5 5 6 5 5 5 6 6 6 7 6 6 7
6 5 4 5 4 4 4 4 4 5 4 4 3 4 4 4 3 4 5 5 4 5 4 3 3 5 6 6 6 6 6 6 6 7 7 7 7 7 7 6 7 7 7 8 7 7 7 7 8 8 8 9 9 9 9 9 9 9 9 10 10 13 16 16 10 10 10 9 8 7 6 6 5 5 5 5 5 4 6 6 6 6 6 6 6
6 6 6 6 5 5 6 5 7 5 5 4 2 2 4 2 3 3 4 5 4 4 3 4 5 5 5 6 6 6 6 7 7 7 7 7 7 7 7 7 7 7 7 7 8 7 7 7 8 7 8 8 8 9 9 9 9 9 10 9 14 23 21 20 13 11 13 9 8 7 7 6 6 6 6 5 5 5 5 5 6 6 6 6 6
7 7 6 5 6 6 6 6 5 5 5 4 4 2 2 3 3 4 4 4 4 4 4 4 4 5 5 6 7 7 6 6 7 7 8 8 7 7 7 7 7 7 7 7 7 7 7 7 7 8 8 8 8 8 8 8 8 9 9 11 20 22 21 21 17 18 13 7 8 6 6 6 6 6 6 5 5 5 5 5 5 4 5 6 6
8 8 7 7 6 6 6 7 6 5 5 4 4 3 3 4 6 5 4 5 6 6 4 5 5 5 5 6 7 6 7 7 7 7 7 8 8 7 7 7 7 7 7 7 7 7 7 7 7 7 8 8 8 8 8 8 7 9 14 19 20 20 20 18 13 15 18 11 7 6 6 6 6 6 6 6 5 5 5 5 5 5 5 5 5
Wind_Direction
93 94 93 90 91 87 84 84 88 86 79 77 79 75 66 61 56 41 46 57 49 39 26 20 14 18 18 11 12 3 13 356 354 358 354 339 332 333 334 344 331 316 318 309 309 302 296 289 287 286 295 289 282 282 278 277 273 267 268 276 275 263 254 264 272 279 286 262 258 279 278 280 278 263 267 267 250 251 242 246 247 245 246 245 249
85 88 85 91 92 93 91 88 87 84 81 76 78 76 76 69 58 48 66 47 52 39 31 15 13 16 21 7 8 8 9 9 356 6 353 343 329 331 329 320 304 295 297 290 292 287 283 280 280 282 280 277 277 274 273 275 268 268 261 255 259 258 248 258 266 275 281 292 269 260 277 269 278 269 263 274 272 244 246 247 245 244 246 251 250
87 89 92 93 91 88 86 82 80 79 80 75 75 71 73 71 58 65 49 36 28 49 25 20 8 13 12 0 6 359 355 352 345 346 326 320 311 309 303 302 288 285 286 279 280 281 280 275 277 280 280 277 273 271 273 269 267 262 263 255 257 259 252 243 259 269 277 281 285 283 276 274 265 280 272 265 269 268 265 259 251 245 243 244 249
87 89 91 86 81 78 75 76 81 84 83 80 78 67 62 55 45 48 37 37 35 6 31 20 15 10 12 2 356 351 343 330 319 304 285 284 287 285 287 283 276 273 273 277 279 278 270 276 272 272 274 273 271 270 266 264 261 260 260 256 255 259 255 249 242 258 272 282 285 282 275 282 278 271 270 269 274 270 262 267 262 255 251 240 242
86 82 84 84 75 76 75 74 83 83 86 79 70 60 49 45 42 45 37 32 10 26 2 10 23 15 9 357 351 351 336 329 324 314 304 288 277 279 282 277 273 272 269 270 272 271 271 265 273 274 270 271 273 265 267 264 258 258 258 259 256 257 260 250 251 250 261 270 280 283 282 270 274 279 273 277 274 268 260 253 259 258 252 246 243
89 90 86 88 82 76 72 70 71 76 76 70 67 63 56 49 45 33 54 31 13 14 29 4 23 5 359 349 348 335 331 327 320 307 303 305 303 296 293 292 288 285 284 278 276 271 268 269 270 268 268 266 272 273 267 265 266 258 257 258 256 257 259 258 251 253 256 264 272 284 286 284 279 270 273 262 275 279 276 266 252 248 252 256 247
90 92 90 89 87 78 74 68 64 63 61 64 65 65 64 58 54 41 26 67 51 29 15 25 354 11 337 346 335 325 324 327 322 316 316 322 325 324 317 313 303 299 289 285 282 277 271 270 272 267 265 265 269 273 274 273 266 263 259 259 263 262 261 261 257 255 255 264 269 269 280 281 277 282 278 264 256 258 273 281 276 262 225 237 257
91 91 92 91 87 82 75 69 62 58 56 54 57 65 64 53 41 30 40 36 34 32 20 13 346 358 339 343 330 334 338 338 328 325 327 332 331 322 319 311 308 302 297 292 287 282 278 275 271 269 265 266 265 269 266 270 271 271 263 254 260 263 262 265 263 259 260 262 263 273 271 278 282 274 279 275 274 268 242 249 268 278 271 235 233
92 93 92 86 82 80 75 68 62 63 61 59 55 58 56 50 42 43 44 36 23 24 18 15 10 4 359 359 350 347 351 340 333 334 336 327 325 318 311 305 300 299 296 292 286 284 283 278 273 270 266 265 263 263 264 263 271 277 274 261 256 260 267 267 264 263 262 262 267 265 271 272 273 281 282 272 261 265 273 252 257 263 273 277 262
100 93 84 82 82 80 81 82 80 77 68 61 53 47 50 42 49 44 32 30 23 15 17 12 19 9 357 349 351 349 341 334 326 324 320 311 308 300 297 292 290 290 292 292 289 280 275 279 279 274 273 274 272 270 268 266 261 256 265 272 268 263 262 269 267 263 263 264 265 270 271 270 272 270 273 269 274 276 272 269 270 273 274 268 268
92 89 85 81 80 79 82 88 92 78 66 56 39 36 33 41 50 39 27 24 19 7 12 12 7 1 352 344 339 334 325 319 311 310 310 309 306 298 290 289 283 281 283 288 292 297 292 283 281 283 282 277 274 271 269 267 266 264 261 259 257 257 267 267 267 266 263 260 266 269 267 270 271 272 270 277 274 271 272 274 273 274 268 273 276
99 92 90 84 75 72 69 72 71 66 62 46 33 21 31 38 40 28 21 18 6 8 12 357 347 343 341 343 332 311 307 299 302 305 307 307 306 302 296 294 294 290 287 288 290 293 295 295 291 286 279 277 279 281 278 274 272 269 267 266 263 258 249 249 261 268 264 266 264 261 267 267 274 276 277 280 282 282 275 274 272 269 268 262 264
102 97 93 87 78 67 58 56 56 53 49 46 32 31 37 37 28 18 12 360 6 10 350 350 334 327 330 324 306 295 289 292 297 302 304 304 306 307 299 295 295 295 294 290 290 292 295 297 297 291 284 278 278 280 282 283 280 278 275 273 270 266 263 256 249 249 260 261 264 265 259 269 271 271 272 277 283 284 283 277 274 269 263 263 263
101 98 90 81 75 66 60 53 46 35 34 34 34 35 39 31 15 357 0 5 8 351 336 328 310 307 298 286 279 280 286 289 296 301 305 306 308 311 301 301 295 291 292 291 291 294 294 296 297 296 297 292 283 281 285 287 291 290 287 283 278 273 269 264 261 257 252 254 258 261 263 260 265 268 271 275 279 278 280 278 279 276 270 264 265
97 94 84 74 69 63 58 49 36 13 16 25 33 35 33 19 7 353 5 351 333 314 299 297 290 283 285 279 278 286 287 296 303 306 308 308 309 312 304 300 297 293 290 288 288 289 292 291 290 290 295 298 296 295 293 293 296 295 292 289 283 280 276 274 269 263 258 254 257 261 266 266 267 270 272 270 266 268 268 273 273 271 273 274 268
93 86 77 67 63 59 57 45 25 7 11 19 42 34 25 0 344 330 350 319 300 291 288 278 282 294 297 308 311 304 301 303 307 308 309 308 312 313 308 301 301 298 293 292 289 290 289 289 291 293 295 298 301 303 302 301 298 296 295 294 293 287 280 273 270 263 260 262 261 262 263 265 266 267 267 267 267 268 269 269 267 265 266 266 264
85 82 76 68 67 65 63 43 15 360 7 31 40 29 12 341 330 341 342 301 298 294 285 290 301 313 318 319 314 304 304 302 303 308 311 318 321 317 317 312 305 304 302 302 302 299 296 294 296 298 301 301 306 307 307 308 300 297 295 296 296 295 293 292 282 274 268 264 264 265 267 269 271 272 271 269 268 268 271 269 264 265 262 261 260
86 86 88 87 83 84 83 62 32 332 8 29 25 354 328 316 315 340 323 308 311 302 304 322 319 313 308 304 294 299 301 301 303 311 318 324 331 324 320 321 315 312 308 306 307 305 301 303 303 302 304 304 308 311 314 315 308 304 302 301 300 299 296 299 298 289 280 277 275 274 274 274 273 272 272 271 269 268 264 263 270 272 265 260 264
95 103 108 108 102 107 110 79 18 337 350 350 350 332 312 302 310 325 307 298 291 302 320 320 312 300 283 291 295 298 301 308 315 316 324 330 336 331 329 324 319 316 316 313 312 310 309 308 308 308 308 310 314 316 315 314 309 307 306 302 298 295 295 302 300 298 296 292 284 279 272 268 270 270 270 269 265 262 258 259 263 259 261 264 262
108 111 111 110 103 79 99 87 323 13 299 323 318 303 291 332 319 318 308 293 295 310 307 305 309 314 317 316 319 315 312 313 321 329 335 335 338 338 331 328 322 318 316 314 315 314 314 313 311 314 318 316 312 309 308 307 305 302 300 295 293 292 297 295 291 290 291 290 287 284 278 276 271 268 268 266 259 252 251 248 249 252 260 263 257
110 116 112 102 87 69 43 100 274 286 264 255 283 300 309 305 309 319 305 299 314 327 340 340 336 326 325 322 312 313 313 320 324 331 333 336 336 337 325 321 315 312 312 312 313 315 316 318 317 315 313 311 310 308 306 306 306 304 301 296 292 294 298 295 296 295 292 292 288 286 284 280 273 268 267 264 259 252 245 239 238 239 244 255 255
121 110 103 94 96 110 143 287 262 235 266 35 320 285 284 315 312 296 299 339 1 1 352 343 337 326 325 329 329 322 326 328 324 328 332 333 333 331 327 316 317 316 315 312 313 312 310 309 307 308 310 312 311 310 309 308 308 305 297 297 299 301 298 291 289 287 285 285 283 279 278 275 276 278 273 269 262 256 248 240 238 237 237 243 247
116 112 104 112 141 175 206 238 256 234 117 320 321 315 311 311 300 337 12 12 9 0 350 344 340 332 326 323 325 324 324 325 331 331 329 328 327 325 323 321 323 323 314 307 307 304 300 300 301 305 310 311 312 312 310 310 309 303 302 302 301 297 294 288 280 277 278 276 273 272 275 275 277 271 271 272 268 259 251 241 241 240 239 242 241
115 118 128 139 185 195 216 235 239 130 359 323 330 285 313 12 16 17 21 11 359 351 349 346 334 328 324 320 322 326 330 327 326 325 322 323 322 323 325 325 323 317 312 302 302 299 302 303 307 311 311 311 310 310 310 309 304 302 300 299 296 295 291 288 280 277 275 276 275 272 272 272 268 268 271 273 272 268 263 257 250 242 238 238 239
126 130 148 181 194 193 222 229 168 41 330 348 13 1 16 18 17 4 16 4 359 347 332 339 330 319 317 314 313 315 325 325 314 316 319 318 321 323 323 321 320 319 313 304 300 302 305 308 308 308 309 309 309 307 304 299 296 295 294 294 293 292 289 284 282 280 280 277 276 278 274 266 265 269 274 277 281 280 274 268 256 248 251 256 275
141 158 183 191 198 174 198 123 66 2 16 27 31 21 15 6 9 353 6 353 350 343 329 331 319 313 307 307 310 311 317 321 315 314 315 315 313 316 319 320 318 318 314 307 307 307 308 309 308 306 305 302 302 301 300 300 298 296 295 294 292 290 288 289 290 289 283 281 280 279 277 275 272 273 275 277 278 279 277 269 259 250 228 217 221
157 167 188 190 174 154 130 93 46 24 28 26 18 8 5 8 6 352 342 341 341 335 320 315 310 310 311 311 311 312 314 319 320 317 320 317 314 311 315 314 316 315 308 297 300 302 301 299 300 305 302 295 292 289 290 294 295 296 297 296 296 294 294 296 295 294 292 288 286 281 280 275 278 282 281 281 279 278 274 266 252 243 212 212 214
165 170 171 155 121 83 51 40 31 23 12 11 9 3 359 359 352 311 316 317 321 304 306 302 305 310 312 314 312 312 312 319 322 326 322 319 319 318 312 310 307 304 305 304 305 305 305 301 300 294 294 293 296 302 300 297 296 295 293 298 298 298 297 293 290 288 285 282 282 281 275 278 280 282 284 282 281 279 271 254 242 237 200 167 141
165 152 118 88 66 62 45 39 22 21 4 6 350 325 305 300 290 284 271 234 238 247 263 288 290 286 297 305 313 311 313 315 315 318 317 319 320 319 321 319 319 317 317 318 316 309 305 304 303 302 302 305 309 307 305 304 300 302 305 307 308 306 304 306 306 302 301 298 291 285 285 288 287 284 285 283 281 277 259 246 237 218 187 191 208
135 102 91 85 75 51 36 21 16 27 1 339 328 326 324 325 296 265 269 272 274 289 305 301 306 310 305 293 290 298 306 309 315 320 321 321 321 319 318 320 322 321 320 321 319 310 308 304 307 311 313 318 318 315 314 317 317 316 313 311 309 307 307 310 308 306 306 304 299 293 291 291 288 289 287 285 283 276 244 235 226 190 184 192 182
123 119 108 95 90 94 61 45 9 4 311 327 345 343 346 358 336 317 309 297 310 319 317 313 316 319 319 313 310 309 308 311 316 319 321 322 322 323 324 324 325 325 325 323 321 319 321 320 318 317 317 312 310 312 317 317 317 314 312 311 309 311 312 310 312 313 311 307 301 296 294 292 290 290 289 286 285 269 246 229 205 195 205 183 162
137 131 125 117 105 101 84 117 264 255 338 15 17 359 348 346 19 6 9 350 325 317 322 339 343 337 328 322 318 316 318 318 318 319 321 324 324 323 323 323 325 326 327 330 322 323 321 319 318 317 316 314 315 316 315 311 308 310 311 311 313 315 315 311 313 312 309 306 303 302 299 296 292 291 290 290 280 255 226 211 188 199 164 121 135
132 138 142 135 118 115 139 197 285 57 39 26 10 3 3 355 344 351 351 324 314 324 354 350 341 336 332 327 321 316 315 318 321 325 326 326 325 323 322 322 325 328 331 335 329 319 316 317 313 314 318 318 318 316 312 311 309 308 308 314 314 314 309 310 312 310 309 309 307 305 304 299 295 293 293 289 272 240 225 210 181 136 127 129 121
154 141 126 117 109 88 132 123 89 34 26 43 1 13 353 345 324 320 330 339 65 346 335 337 337 334 331 328 324 322 323 324 326 327 327 327 325 325 326 325 324 330 339 333 329 323 321 316 317 318 317 319 318 317 315 312 310 312 315 311 308 308 309 311 313 314 313 314 314 310 308 306 303 304 301 292 262 255 221 188 156 153 154 150 137
141 117 106 100 103 188 267 100 119 71 67 31 48 355 322 311 316 329 338 339 335 335 332 330 330 333 329 327 327 330 331 328 326 327 327 328 330 331 332 326 331 336 338 333 324 321 321 322 321 323 322 319 318 317 315 314 317 320 317 315 314 312 314 316 314 317 319 317 316 315 314 312 308 302 297 284 254 228 209 178 165 145 138 128 130
130 118 111 115 177 211 188 149 122 153 194 229 243 263 267 287 312 315 319 320 321 321 320 326 324 322 327 331 332 334 331 329 328 329 332 335 337 341 339 336 334 334 331 330 331 329 330 327 326 320 318 316 317 315 315 314 318 318 316 317 317 317 314 314 319 319 318 319 316 315 315 313 310 304 295 277 247 248 109 97 104 114 118 117 116
121 101 111 154 167 158 139 166 187 229 223 202 236 238 260 262 288 304 318 320 318 311 315 321 326 322 327 324 331 333 330 331 332 334 338 341 344 347 339 337 331 329 329 331 331 328 326 324 320 314 315 317 317 316 315 317 318 318 319 318 315 313 313 321 325 324 321 319 320 321 320 316 313 309 301 296 7 58 84 96 99 101 109 123 120
105 123 150 141 144 206 200 223 223 210 208 221 223 217 224 255 275 310 316 316 315 324 324 323 323 323 326 325 335 331 331 330 333 337 339 344 346 345 342 335 334 329 327 326 328 325 321 319 320 320 318 317 314 317 319 319 320 320 318 316 315 312 319 323 326 326 325 322 320 320 319 318 322 329 348 22 80 95 98 103 106 107 102 103 97
108 189 184 187 194 209 206 203 205 189 214 196 217 192 235 240 315 319 321 320 321 315 309 313 317 318 318 321 327 331 333 335 345 340 337 336 337 336 332 330 326 324 322 319 322 322 316 318 321 321 318 318 318 317 319 319 320 318 316 313 314 315 321 327 325 328 329 328 325 326 327 329 333 340 356 26 58 79 86 88 93 102 107 102 97
169 193 194 198 197 195 192 192 198 189 206 189 229 205 164 330 319 328 324 315 305 302 306 312 313 310 315 325 328 335 339 337 335 329 327 329 331 332 333 332 331 326 324 322 320 317 315 315 320 319 315 312 316 316 319 321 320 319 319 316 317 320 322 327 329 329 332 330 329 331 334 338 343 352 12 25 41 68 81 91 92 96 99 95 90
173 186 184 185 187 197 173 189 197 206 206 169 186 168 225 329 47 337 303 286 285 290 300 297 293 300 312 325 330 333 334 328 324 322 322 325 325 327 330 331 331 329 328 325 323 317 317 316 317 315 314 312 313 317 321 324 323 323 321 321 321 323 326 328 332 333 333 334 334 336 339 344 352 6 20 28 49 64 71 85 92 91 83 90 110
176 180 177 189 182 169 184 195 194 199 166 176 187 210 200 68 340 281 273 279 282 290 289 288 290 299 314 323 326 330 331 317 315 316 317 318 319 322 323 326 327 326 324 324 325 321 322 322 318 318 316 318 320 320 322 327 331 331 329 326 325 323 326 328 330 331 332 334 336 339 342 350 1 13 28 38 50 57 74 78 86 93 102 108 108
176 179 180 185 169 177 184 192 178 158 203 182 195 132 104 214 243 255 267 269 271 279 277 290 297 309 311 313 320 323 318 306 312 316 313 314 317 319 320 321 323 321 321 318 318 319 319 318 319 320 320 319 320 322 324 327 330 331 332 328 327 325 325 325 326 330 334 335 338 344 347 353 1 8 17 28 44 60 68 79 84 91 100 108 111
180 181 183 176 177 184 179 179 189 188 175 177 144 155 191 224 244 250 250 255 264 267 274 283 295 305 301 304 309 310 301 307 310 312 313 314 313 315 315 314 317 318 319 317 319 320 320 319 320 320 318 319 321 322 321 323 327 329 332 331 328 330 328 326 325 327 334 336 339 343 350 355 6 11 20 26 35 60 64 74 85 92 98 101 106
179 182 177 174 182 180 203 191 172 180 167 132 129 195 229 224 246 246 247 254 262 272 278 281 290 295 298 298 303 304 304 306 308 308 306 307 308 308 309 312 313 315 315 315 315 316 316 318 318 320 323 324 325 324 325 325 328 330 330 332 329 329 328 325 319 322 329 336 338 344 352 1 6 10 20 29 40 58 66 73 83 95 93 92 100
180 179 176 175 181 179 182 198 179 165 161 164 184 218 247 250 245 248 255 259 264 268 266 275 279 288 291 296 298 302 304 305 301 300 299 302 303 304 304 307 308 308 308 308 309 312 314 317 319 320 322 323 324 326 329 330 332 333 334 333 334 330 323 322 317 325 335 340 342 345 352 1 13 16 23 36 49 62 72 78 81 80 93 98 98
168 172 171 181 177 192 176 184 162 164 162 174 192 210 244 245 246 254 257 261 261 265 268 276 286 291 291 292 293 294 297 299 299 299 298 296 299 298 299 303 307 307 307 309 309 309 314 318 320 320 321 323 323 324 329 331 332 334 337 338 338 339 338 334 332 338 336 339 341 347 354 360 9 13 22 32 48 63 72 78 86 97 97 106 111
161 172 179 185 181 184 197 184 183 184 177 187 201 213 218 231 253 258 258 261 265 270 273 281 284 284 287 285 286 286 289 288 292 293 294 294 292 292 295 299 304 307 308 309 312 312 313 315 317 319 321 323 324 323 324 330 332 335 337 339 342 342 341 343 342 347 342 340 347 351 357 4 9 17 25 34 50 60 80 89 91 94 102 105 106
169 174 184 183 187 191 200 197 189 186 187 187 194 210 222 238 249 254 259 263 264 266 270 276 282 282 279 278 283 283 283 287 289 292 290 290 290 292 294 298 301 305 308 309 310 313 313 313 316 317 318 319 321 321 321 329 334 336 337 337 341 345 345 348 349 352 346 347 351 353 360 7 15 22 27 36 44 57 72 81 94 104 104 101 105
174 177 180 188 188 200 198 191 191 187 186 181 186 212 230 235 248 256 258 262 269 269 272 270 274 272 275 281 285 285 287 287 288 289 290 290 290 291 295 299 303 303 307 306 309 310 313 312 315 316 319 320 321 321 320 323 330 336 338 337 344 347 348 349 349 350 353 349 350 355 360 13 15 22 23 30 38 60 71 81 89 99 106 113 111
178 179 177 185 187 193 191 194 194 193 188 195 200 209 220 236 243 250 258 262 264 266 268 270 272 275 275 273 278 282 284 284 282 283 284 287 289 293 296 299 304 308 306 306 306 309 311 313 313 316 318 320 321 322 321 319 321 338 342 341 347 351 351 351 352 351 355 356 352 358 12 19 31 27 23 19 29 42 56 66 73 78 86 93 105